EW6511 Weather Reports


Display with metric or nautical units.
time (UTC)temp
F
wind
direction
speed
MPH
gust
MPH
rain 1hr
in
rain 24hr
in
rain mn
in
humidity
%
barometer
mb
20260903131023 76 264 7.0 10.0 0.00 0.00 0.00 33 1025.7
20260903130024 76 294 5.0 12.0 0.00 0.00 0.00 34 1025.8
20260903125018 76 251 6.0 11.0 0.00 0.00 0.00 33 1025.8
20260903124020 76 308 7.0 13.0 0.00 0.00 0.00 30 1025.9
20260903123018 76 342 9.0 13.0 0.00 0.00 0.00 32 1026.1
20260903122018 75 261 9.0 14.0 0.00 0.00 0.00 28 1026.3
20260903120015 74 266 7.0 12.0 0.00 0.00 0.00 36 1026.4
20260903115015 74 254 8.0 14.0 0.00 0.00 0.00 35 1026.3
20260903114015 74 291 8.0 11.0 0.00 0.00 0.00 40 1026.3
20260903112030 74 304 6.0 13.0 0.00 0.00 0.00 44 1026.6
20260903111014 73 293 7.0 11.0 0.00 0.00 0.00 46 1026.7
20260903110016 73 324 6.0 11.0 0.00 0.00 0.00 48 1026.7
20260903105016 72 271 6.0 10.0 0.00 0.00 0.00 49 1026.5
20260903103015 72 287 7.0 11.0 0.00 0.00 0.00 48 1026.6
20260903101015 71 255 7.0 12.0 0.00 0.00 0.00 52 1026.7
20260903100015 71 263 7.0 12.0 0.00 0.00 0.00 52 1026.9
20260903093012 70 295 4.0 8.0 0.00 0.00 0.00 53 1026.9
20260903092011 69 258 4.0 8.0 0.00 0.00 0.00 53 1026.9
20260903085011 68 257 3.0 8.0 0.00 0.00 0.00 54 1027.2
20260903084011 68 257 3.0 6.0 0.00 0.00 0.00 54 1027.1
20260903083012 67 256 4.0 9.0 0.00 0.00 0.00 55 1027.1
20260903082010 67 256 2.0 6.0 0.00 0.00 0.00 57 1026.9
20260903081009 67 256 0.0 0.0 0.00 0.00 0.00 57 1026.7
20260903080006 67 257 0.0 0.0 0.00 0.00 0.00 58 1026.6
20260903075007 66 275 0.0 0.0 0.00 0.00 0.00 59 1026.6
20260903073008 66 180 0.0 0.0 0.00 0.00 0.00 60 1026.7
20260903072008 66 174 0.0 0.0 0.00 0.00 0.00 59 1026.6
20260903070006 66 173 0.0 0.0 0.00 0.00 0.00 60 1026.7
20260903065007 65 173 0.0 0.0 0.00 0.00 0.00 64 1026.9
20260903064008 62 173 0.0 0.0 0.00 0.00 0.00 62 1027.1
20260903063002 62 173 0.0 0.0 0.00 0.00 0.00 63 1026.9
20260903062000 61 173 0.0 0.0 0.00 0.00 0.00 64 1026.7
20260903061002 60 173 0.0 0.0 0.00 0.00 0.00 64 1026.6
20260903060002 60 173 0.0 0.0 0.00 0.00 0.00 66 1026.4
20260903054959 58 173 0.0 0.0 0.00 0.00 0.00 68 1026.5
20260903053959 57 173 0.0 0.0 0.00 0.00 0.00 68 1026.3
20260903045954 56 173 0.0 0.0 0.00 0.00 0.00 69 1025.9
20260903043952 56 173 0.0 0.0 0.00 0.00 0.00 69 1025.8
20260903042954 57 173 0.0 0.0 0.00 0.00 0.00 68 1025.6
20260903040952 57 173 0.0 0.0 0.00 0.00 0.00 67 1025.7
20260903035952 57 173 0.0 0.0 0.00 0.00 0.00 68 1025.8
20260903034952 58 173 0.0 0.0 0.00 0.00 0.00 67 1025.8
20260903033952 58 173 0.0 0.0 0.00 0.00 0.00 67 1025.7
20260903032948 58 173 0.0 0.0 0.00 0.00 0.00 67 1025.6
20260903031946 58 173 0.0 0.0 0.00 0.00 0.00 66 1025.5
20260903030946 58 173 0.0 0.0 0.00 0.00 0.00 67 1025.5
20260903025949 58 173 0.0 0.0 0.00 0.00 0.00 67 1025.3
20260903024947 58 173 0.0 0.0 0.00 0.00 0.00 67 1025.5
20260903023947 58 173 0.0 0.0 0.00 0.00 0.00 67 1025.6
20260903022946 58 173 0.0 0.0 0.00 0.00 0.00 67 1025.5
20260903020948 58 173 0.0 0.0 0.00 0.00 0.00 67 1025.5
20260903015941 58 173 0.0 2.0 0.00 0.00 0.00 67 1025.5
20260903014940 58 173 1.0 3.0 0.00 0.00 0.00 67 1025.5
20260903013940 58 173 0.0 0.0 0.00 0.00 0.00 66 1025.5
20260903012941 59 173 0.0 0.0 0.00 0.00 0.00 65 1025.5
20260903011941 59 173 0.0 0.0 0.00 0.00 0.00 65 1025.6
20260903005940 61 173 0.0 0.0 0.00 0.00 0.00 63 1025.5
20260903004939 61 173 0.0 0.0 0.00 0.00 0.00 62 1025.5
20260903002933 62 173 0.0 2.0 0.00 0.00 0.00 62 1025.2
20260903000933 61 173 0.0 0.0 0.00 0.00 0.00 62 1025.3
20260902235932 61 173 0.0 1.0 0.00 0.00 0.00 62 1025.3
20260902231934 62 173 0.0 0.0 0.00 0.00 0.00 61 1025.5
20260902230933 62 173 0.0 2.0 0.00 0.00 0.00 61 1025.3
20260902225933 63 173 1.0 2.0 0.00 0.00 0.00 61 1025.5
20260902224931 63 173 0.0 2.0 0.00 0.00 0.00 60 1025.6
20260902223930 63 173 0.0 0.0 0.00 0.00 0.00 60 1025.7
20260902222931 63 173 0.0 0.0 0.00 0.00 0.00 59 1025.6
20260902221929 63 173 0.0 0.0 0.00 0.00 0.00 60 1025.6
20260902220930 63 173 0.0 0.0 0.00 0.00 0.00 60 1025.6
20260902215931 63 173 0.0 1.0 0.00 0.00 0.00 60 1025.6
20260902214931 63 173 2.0 5.0 0.00 0.00 0.00 60 1025.5
20260902212929 63 173 2.0 5.0 0.00 0.00 0.00 60 1025.5
20260902210930 64 173 0.0 1.0 0.00 0.00 0.00 59 1025.5
20260902205931 64 173 1.0 3.0 0.00 0.00 0.00 58 1025.5
20260902204931 64 173 1.0 3.0 0.00 0.00 0.00 58 1025.2
20260902203931 64 173 0.0 0.0 0.00 0.00 0.00 58 1025.2
20260902202929 64 173 0.0 1.0 0.00 0.00 0.00 58 1025.2
20260902201931 64 173 2.0 5.0 0.00 0.00 0.00 59 1025.0
20260902200930 65 201 2.0 4.0 0.00 0.00 0.00 58 1025.2
20260902195929 66 286 0.0 2.0 0.00 0.00 0.00 57 1025.2
20260902193930 67 286 0.0 0.0 0.00 0.00 0.00 54 1025.1
20260902190929 68 286 1.0 2.0 0.00 0.00 0.00 53 1024.8
20260902185930 68 286 1.0 3.0 0.00 0.00 0.00 54 1024.8
20260902184927 69 286 0.0 1.0 0.00 0.00 0.00 51 1024.6
20260902182928 71 286 1.0 3.0 0.00 0.00 0.00 46 1024.3
20260902181929 71 284 1.0 3.0 0.00 0.00 0.00 47 1024.3
20260902180922 72 284 1.0 3.0 0.00 0.00 0.00 46 1024.2
20260902175922 73 284 1.0 2.0 0.00 0.00 0.00 43 1024.1
20260902174921 73 284 1.0 3.0 0.00 0.00 0.00 42 1024.0
20260902173921 74 284 3.0 6.0 0.00 0.00 0.00 42 1023.9
20260902172922 74 283 4.0 8.0 0.00 0.00 0.00 40 1023.9
20260902171922 75 296 5.0 8.0 0.00 0.00 0.00 39 1023.9
20260902170921 75 278 5.0 8.0 0.00 0.00 0.00 40 1023.7
20260902164922 76 313 7.0 10.0 0.00 0.00 0.00 39 1023.5
20260902163916 76 304 5.0 9.0 0.00 0.00 0.00 41 1023.7
20260902162915 76 283 5.0 9.0 0.00 0.00 0.00 43 1023.6
20260902161915 75 328 7.0 10.0 0.00 0.00 0.00 40 1023.6
20260902160917 76 292 9.0 12.0 0.00 0.00 0.00 38 1023.6
20260902155915 76 308 10.0 14.0 0.00 0.00 0.00 39 1023.6
20260902154915 77 311 7.0 12.0 0.00 0.00 0.00 39 1023.5
20260902153917 77 311 7.0 12.0 0.00 0.00 0.00 39 1023.5
20260902152916 77 297 9.0 17.0 0.00 0.00 0.00 37 1023.4
20260902150911 76 293 8.0 14.0 0.00 0.00 0.00 40 1023.5
20260902145910 76 323 9.0 16.0 0.00 0.00 0.00 37 1023.6
20260902144910 77 307 8.0 14.0 0.00 0.00 0.00 37 1023.5
20260902143910 77 281 9.0 15.0 0.00 0.00 0.00 35 1023.6
20260902142909 77 249 5.0 10.0 0.00 0.00 0.00 34 1023.7
20260902140909 76 307 8.0 13.0 0.00 0.00 0.00 36 1023.6
20260902135908 76 294 9.0 15.0 0.00 0.00 0.00 39 1023.7
20260902134909 76 267 9.0 16.0 0.00 0.00 0.00 37 1023.7
20260902133903 76 289 7.0 12.0 0.00 0.00 0.00 37 1023.7
20260902132903 76 261 6.0 12.0 0.00 0.00 0.00 35 1023.7